Wind_Speed
27 24 21 23 24 21 19 17 19 21 21 17 14 9 7 6 6 7 9 9 9 10 8 6 6 8 8 8 9 10 10 10 6 17 16 19 18 13 12 10 6 5 7
27 24 22 21 21 22 23 20 19 18 20 17 12 11 8 10 9 8 9 10 10 7 6 8 11 12 11 11 13 15 17 15 11 11 17 17 15 12 11 11 9 9 13
27 25 24 23 23 25 22 20 21 18 17 15 13 12 8 11 10 9 9 7 7 9 10 12 14 13 15 15 15 16 19 13 12 11 15 18 19 11 10 11 12 16 16
28 28 28 25 26 23 20 19 18 15 15 14 12 13 11 10 12 8 11 11 13 14 14 14 16 18 18 17 20 17 15 12 10 12 17 18 16 8 7 12 15 17 17
30 32 29 26 25 21 20 22 18 16 14 16 15 14 13 13 15 12 14 16 16 14 16 17 18 17 16 17 10 11 6 8 12 15 15 15 10 8 10 11 13 17 15
31 33 31 27 26 24 23 21 18 17 17 17 18 15 13 13 14 13 16 17 15 16 16 18 19 20 19 8 1 2 8 11 13 13 14 6 7 10 12 11 12 9 5
33 33 30 31 30 28 24 22 21 17 18 17 15 14 14 14 14 13 11 11 13 13 15 20 19 15 3 1 5 10 11 9 5 9 10 9 11 11 12 12 12 11 12
32 31 30 32 33 30 28 26 24 23 22 18 13 11 12 10 9 12 13 15 15 14 14 12 10 3 4 4 7 10 10 10 10 12 10 10 11 12 13 13 14 16 16
30 29 30 34 34 34 31 28 27 27 23 17 16 12 12 11 11 13 14 16 11 9 8 7 2 3 3 5 8 8 11 12 13 11 10 10 9 10 12 13 15 14 10
30 30 33 35 33 32 34 34 30 29 21 17 16 11 11 14 14 14 13 10 8 4 3 1 4 1 1 4 6 9 13 15 13 15 18 11 10 10 10 14 13 15 12
30 32 32 34 35 29 31 32 30 26 22 18 16 13 13 15 16 13 11 9 5 2 1 5 8 4 6 5 7 10 11 13 15 12 14 11 15 13 10 12 11 11 10
30 29 29 35 28 29 30 28 28 21 22 16 14 13 10 10 10 9 9 5 4 6 7 3 5 10 11 7 7 10 12 14 12 14 16 17 18 13 14 15 14 15 14
29 30 31 32 32 35 28 19 23 22 21 16 12 11 11 10 10 7 6 4 7 9 8 8 9 10 9 6 7 10 12 9 9 12 14 15 14 15 16 17 17 20 17
26 24 18 17 15 15 24 25 28 25 18 15 12 10 10 10 9 8 6 5 5 4 4 3 8 4 5 5 4 9 7 8 7 11 12 13 15 16 19 20 21 23 19
20 20 23 25 26 23 24 26 25 20 16 15 15 13 15 12 9 6 4 1 1 4 8 5 9 8 8 6 5 6 6 9 7 8 11 14 17 18 20 20 20 21 19
19 22 24 25 28 29 26 22 18 13 10 10 10 11 11 9 6 3 5 2 4 9 13 10 13 4 13 11 9 6 5 8 10 11 13 15 16 17 19 20 22 21 18
21 24 26 28 30 31 29 26 20 14 14 14 15 14 12 13 10 8 4 1 4 9 6 6 7 6 12 13 10 10 8 10 11 13 17 17 17 18 20 22 22 19 18
25 26 26 27 29 32 30 28 26 26 25 21 16 15 12 9 6 2 3 8 11 10 7 6 7 6 10 11 10 12 12 14 15 14 12 15 20 22 23 21 19 19 20
21 23 28 32 30 33 31 31 28 26 26 23 18 13 9 5 1 5 7 6 4 4 5 7 8 9 10 7 8 8 8 7 9 16 21 24 24 21 23 21 20 20 19
26 34 30 29 31 26 24 26 23 22 22 21 17 12 8 3 7 13 11 9 7 6 5 5 6 6 8 8 9 7 7 13 19 23 25 25 25 22 21 21 21 20 19
25 32 35 29 24 23 25 27 25 25 22 18 13 7 6 9 13 12 10 8 7 5 5 6 5 7 7 8 8 10 15 19 21 22 25 27 26 24 21 19 19 16 16
31 33 34 22 24 23 26 26 27 27 23 20 16 15 14 16 14 11 8 7 7 7 6 6 5 7 7 8 12 16 19 20 22 24 25 26 25 22 18 16 15 16 16
32 33 30 22 26 27 27 28 26 25 25 20 17 18 18 15 13 10 9 8 7 7 7 6 6 7 6 11 15 18 21 23 24 23 24 25 22 17 16 18 18 17 15
34 27 24 20 27 27 28 29 25 28 24 19 20 20 18 15 13 10 8 7 8 8 8 8 9 8 10 14 18 22 24 24 22 21 21 21 17 16 16 17 17 17 16
30 21 26 29 30 32 32 31 29 29 27 26 23 21 18 15 13 10 8 7 8 9 9 10 10 12 15 18 22 26 25 23 22 21 20 17 15 15 15 16 17 12 13
15 26 29 32 34 34 34 34 35 34 31 26 23 19 16 13 11 9 8 6 7 7 8 10 13 15 17 20 24 25 25 23 22 20 17 14 14 15 15 15 13 9 8
Wind_Direction
185 187 179 175 185 189 188 175 170 175 183 181 181 188 202 206 220 208 215 225 242 264 265 282 294 304 303 275 288 293 308 292 248 305 312 329 340 6 4 2 2 329 293
186 187 187 192 196 187 181 180 177 176 179 180 193 203 214 215 212 220 235 244 266 248 280 290 299 306 301 290 298 293 307 292 291 277 310 321 319 321 343 337 336 315 319
189 188 191 195 200 195 191 184 180 178 181 185 197 212 211 209 211 233 239 254 261 273 281 290 297 301 304 306 304 302 306 300 298 289 303 314 313 288 321 327 333 327 321
192 189 191 193 193 193 195 189 192 198 192 196 205 210 225 230 221 231 236 246 255 266 275 282 297 305 308 306 306 289 295 293 289 300 305 309 307 287 314 321 323 329 322
186 191 194 193 195 198 201 201 200 194 189 200 211 222 228 234 226 236 252 255 266 268 284 298 307 309 305 301 294 298 303 300 305 306 304 306 300 305 318 312 312 325 328
189 196 195 191 194 201 206 206 201 204 207 218 226 224 233 235 238 247 261 266 259 281 295 310 313 312 310 276 219 12 351 329 318 313 304 290 299 307 307 296 315 322 328
196 197 198 190 195 201 203 207 208 212 223 226 234 234 246 242 242 256 239 253 271 291 306 310 315 316 284 299 359 323 317 334 12 353 340 313 311 313 309 302 314 312 301
192 193 195 195 196 199 203 206 210 218 221 219 218 233 239 253 254 252 254 267 278 293 307 325 334 111 90 2 357 354 359 356 337 330 317 313 312 314 307 301 302 301 305
192 191 190 195 202 203 200 205 212 220 219 216 225 229 233 253 256 257 256 272 272 293 320 348 42 115 34 12 4 356 351 345 346 345 335 333 343 345 322 312 299 299 297
192 194 196 199 208 203 200 203 213 217 214 214 224 225 238 247 251 258 264 261 268 270 304 188 191 254 359 342 353 356 348 346 347 349 356 352 350 337 343 336 326 308 299
208 205 196 202 205 206 201 206 211 211 221 213 218 224 244 255 256 255 256 269 258 278 285 285 228 256 292 300 341 345 335 328 329 320 335 337 348 337 337 339 330 303 299
214 206 201 196 206 196 205 214 212 202 216 212 221 229 249 260 249 259 248 239 257 297 296 333 249 266 277 285 318 331 320 310 313 321 331 337 343 352 346 344 341 338 329
215 208 203 196 197 196 199 206 203 212 209 208 211 230 245 244 233 213 208 241 270 294 304 303 299 285 249 274 313 317 318 318 324 345 344 351 353 351 348 346 346 349 344
209 206 201 177 161 182 200 206 213 207 204 206 214 231 227 202 197 195 217 272 300 352 350 347 330 255 206 265 318 332 319 327 301 332 341 350 354 358 359 357 345 344 338
204 184 169 170 177 187 189 195 204 204 205 218 224 238 202 187 180 212 267 294 20 343 340 354 3 210 224 239 291 323 323 323 312 331 339 345 342 346 347 349 347 341 335
204 181 173 170 174 181 173 173 194 189 207 214 210 213 170 166 179 165 139 126 338 330 321 320 345 270 228 241 258 290 332 337 321 324 336 338 338 339 338 340 342 338 328
212 184 174 168 169 168 168 168 150 144 145 141 142 148 143 132 123 124 147 270 342 342 23 33 5 255 232 240 255 274 309 323 323 319 335 343 347 341 334 328 333 334 324
225 202 172 161 170 171 174 176 160 153 146 149 153 155 146 136 130 147 313 328 1 31 49 36 10 8 272 254 279 289 299 311 323 336 353 349 334 327 324 325 326 325 324
220 174 161 174 179 178 183 176 170 166 164 163 170 170 165 163 259 308 312 334 38 59 53 36 35 72 69 56 19 353 337 357 7 342 336 335 334 330 323 323 322 321 318
202 183 167 169 177 181 180 169 170 169 173 176 175 172 185 166 69 94 99 97 94 81 61 49 79 57 39 23 5 13 2 348 344 341 341 339 335 331 323 320 319 316 314
200 178 167 172 185 180 173 179 180 179 176 164 155 136 137 142 125 114 104 93 77 72 58 36 79 31 19 11 11 358 349 345 345 344 341 338 336 331 328 319 314 315 316
187 171 164 179 181 181 179 176 175 175 168 148 138 132 136 125 119 111 98 81 59 59 39 24 27 9 12 6 359 351 348 346 344 340 337 336 335 333 329 326 327 327 326
160 152 166 191 187 178 168 168 172 171 154 143 135 133 131 123 120 111 95 73 60 45 29 15 11 14 10 357 353 353 347 341 337 334 332 333 332 335 337 333 332 331 322
149 159 174 180 165 154 152 156 159 153 144 139 134 132 128 124 115 100 83 64 48 45 34 31 27 15 356 351 349 346 342 336 332 330 330 329 326 328 330 332 332 319 308
152 172 159 143 135 130 127 131 134 139 135 133 133 131 124 112 103 90 76 59 48 46 48 42 23 2 350 344 342 342 342 339 336 334 333 331 326 327 331 338 328 313 336
161 140 129 124 122 125 127 125 129 135 135 131 127 125 112 102 86 75 77 47 43 44 30 12 1 351 343 342 347 346 345 345 344 343 341 342 344 346 344 329 318 351 347
Height
789 797 798 802 808 812 814 817 819 823 826 829 832 833 835 837 838 839 840 840 841 841 839 837 836 834 831 829 827 826 825 824 823 820 819 817 814 811 808 805 803 801 801
784 790 795 804 809 810 812 817 819 823 825 826 830 832 833 835 836 838 839 839 839 839 837 836 834 832 829 826 825 823 821 820 819 817 816 814 812 810 807 805 802 801 799
782 787 794 801 808 810 813 815 818 823 824 826 828 831 831 832 834 836 836 837 837 837 835 834 832 829 827 824 821 819 818 817 816 815 813 811 809 807 804 802 800 798 795
783 787 793 800 807 810 812 816 818 819 822 825 827 830 830 831 832 833 834 835 835 834 833 831 829 827 823 821 818 815 814 814 813 812 810 807 805 803 802 799 796 794 791
783 788 790 796 804 810 812 814 816 818 820 822 826 829 829 829 829 831 832 832 831 831 829 828 825 822 819 817 814 814 812 812 810 808 806 804 801 800 799 797 794 791 788
782 786 786 791 799 806 811 815 817 819 818 821 825 826 828 827 828 829 829 828 828 827 826 823 820 816 814 814 813 812 813 810 808 806 803 801 799 798 796 794 792 789 787
778 782 783 784 794 800 807 812 815 816 818 819 821 823 825 826 826 827 827 826 826 824 822 819 816 812 811 812 813 811 810 809 806 805 802 800 797 795 793 791 790 788 786
773 776 779 783 788 793 800 805 810 813 814 815 815 819 822 823 824 825 825 824 822 821 818 816 813 812 812 811 810 809 808 807 805 803 800 797 795 793 790 788 787 784 782
769 771 775 779 783 785 792 799 805 810 811 811 813 815 818 820 821 821 821 820 819 818 815 813 813 812 811 810 809 807 806 805 803 801 798 795 792 790 788 786 783 781 778
765 769 772 774 777 785 785 791 801 804 805 807 811 812 815 816 818 818 818 817 815 815 814 813 813 812 811 809 808 806 804 803 801 798 795 792 790 788 786 784 782 779 777
763 765 766 772 771 783 787 791 796 801 804 805 808 810 812 813 815 815 816 815 814 813 812 811 812 811 810 809 807 805 803 801 799 796 793 790 787 785 783 781 779 777 774
761 762 765 766 772 778 781 789 794 798 804 805 806 808 809 810 811 812 813 813 811 811 809 809 809 809 808 807 805 804 802 799 797 794 791 787 784 782 780 778 775 773 770
758 759 760 759 768 772 782 789 791 797 800 802 803 804 807 808 808 809 810 810 809 808 807 807 807 806 806 805 804 802 800 797 796 793 789 786 783 780 777 774 771 769 766
753 755 760 759 766 771 781 783 791 795 798 800 799 800 802 805 806 807 808 807 807 806 805 805 803 802 804 804 802 800 798 796 794 792 788 785 782 778 775 772 769 766 762
753 753 757 760 763 774 780 784 787 792 795 797 795 797 799 802 804 805 805 805 805 805 803 803 802 801 801 801 800 798 796 794 792 789 786 782 779 776 773 771 767 764 761
751 751 754 756 762 769 775 783 785 788 790 792 792 796 800 802 803 802 803 804 804 803 801 800 799 798 799 799 797 796 794 791 789 787 783 780 777 774 771 768 765 762 758
748 749 750 756 758 766 774 779 780 785 787 791 796 800 800 800 800 801 802 803 803 801 798 797 798 796 797 796 796 794 791 789 787 784 781 777 774 772 769 765 762 758 755
747 746 748 752 757 766 771 776 777 781 786 792 797 800 798 798 799 801 802 801 801 800 799 799 798 796 794 794 794 792 790 787 785 782 778 775 772 769 764 761 758 755 752
743 742 745 746 756 762 768 772 775 780 784 789 794 795 795 797 799 799 800 800 800 800 799 798 798 796 794 794 792 790 788 785 782 779 775 771 767 764 760 757 754 751 749
738 737 742 748 756 763 768 771 777 780 784 787 788 790 793 797 798 798 799 800 800 800 799 798 797 796 795 793 790 788 786 783 779 775 770 766 763 759 756 752 750 747 744
733 735 738 747 757 760 764 769 774 779 783 784 787 790 793 795 797 799 801 802 801 800 799 797 796 795 793 791 789 786 783 779 775 771 767 762 758 754 751 748 746 743 741
726 729 737 747 755 759 762 767 772 776 780 783 787 790 793 794 797 800 802 802 801 799 798 797 795 793 792 790 788 784 780 776 772 768 763 758 754 750 747 745 742 740 738
719 726 736 746 751 757 761 765 769 773 778 783 788 791 793 796 799 801 801 801 800 799 798 796 794 792 791 789 786 782 778 773 769 764 759 755 751 748 745 742 740 737 734
718 728 737 743 749 753 758 763 768 774 780 785 789 793 796 798 799 801 802 801 801 798 796 795 793 792 790 788 784 780 775 770 765 760 756 752 748 745 743 740 737 734 732
724 732 736 741 746 752 759 764 770 777 783 788 792 795 798 798 800 800 801 802 800 798 796 795 793 791 789 785 781 776 771 766 761 756 752 748 745 742 740 738 735 732 731
728 732 736 741 748 755 762 767 774 781 786 791 794 796 797 799 800 801 801 803 801 798 796 794 792 789 786 782 777 772 767 762 757 752 748 745 742 739 737 735 734 732 730